CW4498 Weather Reports


time (UTC)temp
C
wind
direction
speed
KPH
gust
KPH
rain 1hr
cm
rain 24hr
cm
rain mn
cm
humidity
%
barometer
mb
20260906001538 26 272 0.0 1.6 0.00 0.08 0.00 29 1016.6
20260906000028 27 272 0.0 0.0 0.00 0.08 0.00 28 1016.6
20260905234527 27 272 0.0 3.2 0.00 0.08 0.00 28 1016.6
20260905233026 26 325 0.0 1.6 0.00 0.08 0.00 30 1016.6
20260905231533 28 332 0.0 3.2 0.00 0.08 0.00 28 1016.6
20260905230026 28 275 0.0 3.2 0.00 0.08 0.00 29 1016.6
20260905224525 26 276 0.0 4.8 0.00 0.08 0.00 33 1016.7
20260905223025 26 279 0.0 4.8 0.00 0.08 0.00 32 1016.9
20260905221524 26 336 0.0 4.8 0.00 0.08 0.00 33 1016.7
20260905220024 25 325 1.6 4.8 0.00 0.08 0.00 32 1017.0
20260905214523 25 276 0.0 6.4 0.00 0.08 0.00 33 1017.0
20260905213024 25 253 0.0 8.0 0.00 0.08 0.00 32 1017.1
20260905211522 26 126 3.2 8.0 0.00 0.08 0.00 32 1017.2
20260905210022 26 103 8.0 20.9 0.00 0.08 0.00 30 1017.1
20260905204525 28 103 1.6 4.8 0.00 0.08 0.00 27 1017.1
20260905203022 30 126 1.6 8.0 0.00 0.08 0.00 25 1017.0
20260905201522 30 126 3.2 12.9 0.00 0.08 0.00 24 1017.0
20260905200021 29 118 0.0 11.3 0.00 0.08 0.00 25 1017.0
20260905194520 30 126 6.4 12.9 0.00 0.08 0.00 23 1017.0
20260905193019 31 128 0.0 4.8 0.00 0.08 0.00 23 1017.1
20260905191518 31 111 0.0 3.2 0.00 0.08 0.00 25 1017.1
20260905190027 30 90 0.0 4.8 0.00 0.08 0.00 25 1017.2
20260905184517 30 11 0.0 6.4 0.00 0.08 0.00 25 1017.3
20260905183018 31 139 1.6 6.4 0.00 0.08 0.00 24 1017.5
20260905181516 30 88 0.0 4.8 0.00 0.08 0.00 24 1017.7
20260905180018 31 121 0.0 14.5 0.00 0.08 0.00 25 1017.7
20260905174514 31 150 1.6 8.0 0.00 0.08 0.00 24 1017.8
20260905173013 31 122 0.0 4.8 0.00 0.08 0.00 25 1017.8
20260905171511 30 114 3.2 12.9 0.00 0.08 0.00 26 1017.8
20260905170010 30 122 1.6 11.3 0.00 0.08 0.00 27 1017.8
20260905164507 29 129 3.2 9.7 0.00 0.08 0.00 27 1017.8
20260905163005 29 137 1.6 4.8 0.00 0.08 0.00 28 1017.9
20260905161502 28 132 1.6 9.7 0.00 0.08 0.00 29 1017.9
20260905154603 27 130 1.6 6.4 0.00 0.08 0.00 31 1017.8
20260905153054 27 135 0.0 6.4 0.00 0.08 0.00 33 1017.7
20260905151550 26 101 0.0 3.2 0.00 0.08 0.00 35 1017.7
20260905150045 24 105 0.0 1.6 0.00 0.08 0.00 41 1017.8
20260905144541 22 119 0.0 1.6 0.00 0.08 0.00 44 1017.9
20260905143037 20 263 0.0 0.0 0.00 0.08 0.00 53 1018.0
20260905141533 18 268 0.0 1.6 0.00 0.08 0.00 58 1018.0
20260905140032 17 268 0.0 3.2 0.00 0.08 0.00 60 1017.9
20260905134532 18 116 0.0 4.8 0.00 0.08 0.00 57 1017.8
20260905133032 17 138 0.0 3.2 0.00 0.08 0.00 60 1017.3
20260905131531 16 138 0.0 4.8 0.00 0.08 0.00 65 1017.2
20260905130030 16 245 0.0 4.8 0.00 0.08 0.00 69 1017.0
20260905124528 15 161 0.0 9.7 0.00 0.08 0.00 74 1016.6
20260905123029 15 114 1.6 8.0 0.00 0.08 0.00 78 1016.5
20260905121527 13 129 0.0 3.2 0.00 0.08 0.00 80 1016.5
20260905120037 13 276 0.0 3.2 0.00 0.08 0.00 78 1016.5
20260905114526 13 138 0.0 1.6 0.00 0.08 0.00 78 1016.4
20260905113029 13 259 0.0 1.6 0.00 0.08 0.00 77 1016.4
20260905111544 13 259 0.0 1.6 0.00 0.08 0.00 76 1016.5
20260905110025 13 236 0.0 0.0 0.00 0.08 0.00 76 1016.5
20260905104523 13 233 0.0 0.0 0.00 0.08 0.00 75 1016.6
20260905103028 13 233 0.0 0.0 0.00 0.08 0.00 75 1016.8
20260905101520 14 233 0.0 0.0 0.00 0.08 0.00 74 1016.7
20260905100020 14 234 0.0 1.6 0.00 0.08 0.00 74 1016.8
20260905094516 14 233 0.0 0.0 0.00 0.08 0.00 72 1016.9
20260905093016 15 233 0.0 0.0 0.00 0.08 0.00 72 1016.8
20260905091514 15 233 0.0 0.0 0.00 0.08 0.00 71 1016.8
20260905090012 15 233 0.0 0.0 0.00 0.08 0.00 70 1016.9
20260905084509 16 234 0.0 0.0 0.00 0.08 0.00 68 1016.9
20260905083009 16 233 0.0 0.0 0.00 0.08 0.00 67 1016.9
20260905081505 16 141 0.0 0.0 0.00 0.08 0.00 66 1016.9
20260905080004 16 238 0.0 0.0 0.00 0.08 0.00 65 1016.8
20260905074503 16 242 0.0 0.0 0.00 0.08 0.00 64 1016.7
20260905073003 16 242 0.0 0.0 0.00 0.08 0.00 64 1016.8
20260905071601 16 242 0.0 0.0 0.00 0.08 0.00 63 1016.8
20260905064616 17 132 0.0 0.0 0.00 0.08 0.00 62 1016.8
20260905063058 17 132 0.0 1.6 0.00 0.08 0.00 59 1016.7
20260905061551 18 132 0.0 4.8 0.00 0.08 0.00 58 1016.6
20260905060048 18 130 0.0 3.2 0.00 0.08 0.00 56 1016.4
20260905054550 18 117 0.0 1.6 0.00 0.08 0.08 54 1016.2
20260905053047 18 210 0.0 1.6 0.00 0.08 0.08 52 1016.3
20260905051548 19 275 0.0 4.8 0.00 0.08 0.08 52 1016.2
20260905050053 19 280 0.0 3.2 0.00 0.08 0.08 51 1016.6
20260905044546 20 155 0.0 6.4 0.00 0.08 0.08 48 1016.6
20260905043045 20 115 0.0 1.6 0.00 0.08 0.08 47 1016.7
20260905041544 20 108 0.0 4.8 0.00 0.08 0.08 45 1016.6
20260905040044 20 271 0.0 3.2 0.00 0.08 0.08 46 1016.4
20260905034544 20 260 0.0 1.6 0.00 0.08 0.08 45 1016.5
20260905033043 21 221 0.0 1.6 0.00 0.08 0.08 43 1016.2
20260905031543 21 125 0.0 4.8 0.00 0.08 0.08 42 1016.0
20260905030042 21 125 0.0 3.2 0.00 0.08 0.08 41 1015.8
20260905024548 21 110 0.0 1.6 0.00 0.08 0.08 42 1015.3
20260905023042 22 121 0.0 3.2 0.00 0.08 0.08 41 1015.1
20260905021543 22 257 1.6 3.2 0.00 0.08 0.08 42 1014.9
20260905020040 21 265 0.0 1.6 0.00 0.08 0.08 43 1014.7
20260905014551 21 268 0.0 4.8 0.00 0.08 0.08 46 1014.6
20260905013040 21 275 0.0 1.6 0.08 0.08 0.08 50 1014.5
20260905011538 21 275 0.0 1.6 0.08 0.08 0.08 55 1014.3
20260905010039 20 132 0.0 3.2 0.08 0.08 0.08 59 1014.2
20260905004538 25 262 0.0 8.0 0.08 0.08 0.08 39 1014.4
20260905003037 26 117 0.0 6.4 0.00 0.00 0.00 30 1014.2